Regional Weather Roundup
Issued by NWS Green Bay, WI

Home | Current Version | Previous Version | Text Only | Print | Product List | Glossary On
Versions: 1 2 3 4 5 6 7 8 9 10 11 12 13 14 15 16 17 18 19 20 21 22 23 24 25 26 27 28 29 30 31 32 33 34 35 36 37 38 39 40 41 42 43 44 45 46 47 48 49 50
000
ASUS43 KGRB 210500
RWRGRB

NORTH-CENTRAL AND NORTHEAST WISCONSIN REGIONAL WEATHER ROUNDUP
NATIONAL WEATHER SERVICE GREEN BAY WI
1100 PM CST FRI JAN 20 2017

WIZ005-009-010>012-018-019-210600-
NORTH CENTRAL WISCONSIN

CITY           SKY/WX    TMP DP  RH WIND       PRES   REMARKS
IRONWOOD       CLOUDY    35  34  96 SE6       29.62R
MANITOWISH WTR NOT AVBL
ARBOR VITAE    NOT AVBL
EAGLE RIVER    NOT AVBL
LAND O LAKES   NOT AVBL
RHINELANDER    CLOUDY    34  34 100 S6        29.63S FOG
PHILLIPS       CLOUDY    33  33 100 SE5       29.60S FOG
ANTIGO         NOT AVBL
TOMAHAWK       NOT AVBL
MERRILL        CLOUDY    33  33 100 SE3         N/A  FOG
$$

WIZ013-073-210600-
NORTHEAST WISCONSIN

CITY           SKY/WX    TMP DP  RH WIND       PRES   REMARKS
IRON MOUNTAIN  FOG       33  31  92 SE6       29.66R VSB 1/4
MARINETTE      NOT AVBL
$$

WIZ017-030-035>037-045-210600-
CENTRAL WISCONSIN

CITY           SKY/WX    TMP DP  RH WIND       PRES   REMARKS
MEDFORD        NOT AVBL
WAUSAU         CLOUDY    33  33 100 E7        29.62R FOG
MOSINEE        NOT AVBL
MARSHFIELD     FOG       33  33 100 E6        29.60S VSB 1/2
WISC RAPIDS    CLOUDY    34  34 100 E6        29.63S FOG
STEVENS POINT  NOT AVBL
WAUPACA        NOT AVBL
SHAWANO        NOT AVBL
CLINTONVILLE   FOG       32  32 100 E5        29.66S VSB 3/4
WAUTOMA        MIX PCPN  35  34  96 E3        29.64F FOG
$$

WIZ038-039-048-051-210600-
FOX VALLEY

CITY           SKY/WX    TMP DP  RH WIND       PRES   REMARKS
NWS GREEN BAY  FOG       35  35 100 SE3       29.68R VSB 1/2
APPLETON       FOG       34  34 100 E3        29.65R VSB 1/4
OSHKOSH        FOG       34  33  96 E5        29.65R VSB 1/4
FOND DU LAC    CLOUDY    36  33  89 SE5       29.65S FOG
$$

WIZ022-050-052-210600-
EAST CENTRAL WISCONSIN

CITY           SKY/WX    TMP DP  RH WIND       PRES   REMARKS
EPHRAIM        NOT AVBL
WASHINGTON ISL NOT AVBL
STURGEON BAY   CLOUDY    34  33  96 CALM      29.69S FOG
MANITOWOC      NOT AVBL
SHEBOYGAN      CLOUDY    35  34  96 E3        29.66S FOG
$$

LMZ563-521-522-541>543-210600-
LAKESHORE

STATION/POSITION TIME  TEMP    WIND        PRES    VSBY  WAVE
                       AIR SEA DIR/SP/G                  HT/PER
                 (UTC) (F)     (DEG/KT/KT) (MB)    (MI)  (FT/S)
SHEBOYGAN LKSHOR 0400   37     130/  7/  7 1004.9F
KEWAUNEE LKSHORE 0430   35      CALM  /  1 1004.7F
NORTHPORT PIER   0440   33        CALM     1005.4S
SISTER BAY LKSHO 0435   33        CALM       N/A
$$




USA.gov is the U.S. government's official web portal to all federal, state and local government web resources and services.